TimeEDT,TemperatureF,Dew PointF,Humidity,Sea Level PressureIn,VisibilityMPH,Wind Direction,Wind SpeedMPH,Gust SpeedMPH,PrecipitationIn,Events,Conditions,WindDirDegrees,DateUTC
12:15 AM,40.5,34.9,80,30.12,10.0,WNW,3.5,-,N/A,,Overcast,290,2012-10-07 04:15:00
12:34 AM,40.3,34.7,80,30.12,10.0,Calm,Calm,-,N/A,,Overcast,0,2012-10-07 04:34:00
12:55 AM,40.1,35.1,82,30.12,10.0,NW,3.5,-,N/A,,Overcast,310,2012-10-07 04:55:00
1:14 AM,39.7,35.6,85,30.12,10.0,WNW,3.5,-,N/A,,Overcast,300,2012-10-07 05:14:00
1:34 AM,39.6,35.8,86,30.11,10.0,WNW,4.6,-,N/A,,Overcast,300,2012-10-07 05:34:00
1:54 AM,39.6,36.0,87,30.11,10.0,NW,3.5,-,N/A,,Light Drizzle,320,2012-10-07 05:54:00
2:15 AM,39.2,36.1,89,30.12,10.0,NNW,3.5,-,N/A,Rain,Rain,330,2012-10-07 06:15:00
2:34 AM,39.2,36.7,91,30.12,10.0,NNW,3.5,-,N/A,,Light Drizzle,340,2012-10-07 06:34:00
3:15 AM,38.8,36.7,92,30.11,10.0,North,3.5,-,N/A,Rain,Rain,10,2012-10-07 07:15:00
3:34 AM,38.7,36.5,92,30.11,10.0,Calm,Calm,-,N/A,,Light Drizzle,0,2012-10-07 07:34:00
3:54 AM,38.7,36.9,93,30.11,10.0,Calm,Calm,-,N/A,,Overcast,0,2012-10-07 07:54:00
4:14 AM,38.7,37.4,95,30.11,10.0,NNW,3.5,-,N/A,,Overcast,330,2012-10-07 08:14:00
4:35 AM,38.7,37.0,94,30.11,10.0,NNW,4.6,-,N/A,,Overcast,340,2012-10-07 08:35:00
4:54 AM,38.7,37.2,95,30.10,10.0,NNW,3.5,-,N/A,,Light Drizzle,340,2012-10-07 08:54:00
5:14 AM,38.7,37.4,95,30.10,10.0,NNW,3.5,-,N/A,,Light Drizzle,330,2012-10-07 09:14:00
5:35 AM,38.5,37.4,96,30.10,10.0,NNW,5.8,-,N/A,,Light Drizzle,340,2012-10-07 09:35:00
5:54 AM,38.3,36.9,95,30.10,10.0,NNW,6.9,-,N/A,,Light Drizzle,340,2012-10-07 09:54:00
6:14 AM,38.3,36.9,95,30.11,10.0,NNW,5.8,-,N/A,,Overcast,330,2012-10-07 10:14:00
6:34 AM,37.9,36.7,95,30.11,10.0,NNW,4.6,-,N/A,,Overcast,330,2012-10-07 10:34:00
6:54 AM,37.9,36.5,95,30.11,10.0,Calm,Calm,-,N/A,,Overcast,0,2012-10-07 10:54:00
7:15 AM,37.8,36.1,94,30.11,10.0,Calm,Calm,-,N/A,Rain,Light Rain,0,2012-10-07 11:15:00
7:34 AM,37.8,36.0,93,30.11,10.0,Calm,Calm,-,N/A,,Light Drizzle,0,2012-10-07 11:34:00
7:55 AM,37.9,36.5,95,30.10,10.0,Calm,Calm,-,N/A,,Overcast,0,2012-10-07 11:55:00
8:14 AM,37.9,36.7,95,30.11,10.0,Calm,Calm,-,N/A,,Overcast,0,2012-10-07 12:14:00
8:35 AM,38.5,37.2,95,30.11,10.0,Calm,Calm,-,N/A,,Overcast,0,2012-10-07 12:35:00
8:54 AM,38.5,37.0,95,30.12,10.0,NW,3.5,-,N/A,,Drizzle,320,2012-10-07 12:54:00
9:14 AM,38.7,37.4,95,30.12,10.0,NW,3.5,-,N/A,,Light Drizzle,310,2012-10-07 13:14:00
9:35 AM,39.0,36.9,92,30.12,10.0,WNW,3.5,-,N/A,,Overcast,300,2012-10-07 13:35:00
9:54 AM,39.4,37.6,93,30.13,10.0,WNW,4.6,-,N/A,,Overcast,300,2012-10-07 13:54:00
10:15 AM,39.7,37.4,91,30.13,10.0,WNW,3.5,-,N/A,,Light Drizzle,290,2012-10-07 14:15:00
10:34 AM,40.1,36.9,88,30.13,10.0,WNW,4.6,-,N/A,Rain,Light Rain,300,2012-10-07 14:34:00
10:54 AM,40.8,36.7,85,30.13,10.0,NW,4.6,-,N/A,,Overcast,310,2012-10-07 14:54:00
11:15 AM,41.2,35.6,81,30.13,10.0,Calm,Calm,-,N/A,,Overcast,0,2012-10-07 15:15:00
11:34 AM,41.7,35.2,78,30.12,10.0,NW,4.6,-,N/A,,Overcast,310,2012-10-07 15:34:00
11:54 AM,42.3,33.8,72,30.12,10.0,Calm,Calm,-,N/A,,Overcast,0,2012-10-07 15:54:00
12:15 PM,42.6,32.5,68,30.12,10.0,Calm,Calm,-,N/A,,Overcast,0,2012-10-07 16:15:00
12:34 PM,43.3,32.4,65,30.12,10.0,WNW,6.9,-,N/A,,Overcast,300,2012-10-07 16:34:00
12:55 PM,43.7,32.2,64,30.13,10.0,WNW,6.9,-,N/A,,Overcast,300,2012-10-07 16:55:00
1:14 PM,43.7,31.5,62,30.13,10.0,West,6.9,-,N/A,,Overcast,280,2012-10-07 17:14:00
1:34 PM,43.7,30.2,59,30.12,10.0,West,4.6,-,N/A,,Overcast,270,2012-10-07 17:34:00
1:55 PM,43.5,29.5,58,30.11,10.0,WNW,5.8,-,N/A,,Overcast,290,2012-10-07 17:55:00
2:14 PM,43.7,29.8,58,30.11,10.0,WSW,4.6,-,N/A,,Overcast,250,2012-10-07 18:14:00
2:34 PM,44.4,29.3,55,30.10,10.0,Calm,Calm,-,N/A,,Overcast,0,2012-10-07 18:34:00
2:55 PM,44.6,32.0,61,30.10,10.0,West,5.8,-,N/A,,Overcast,280,2012-10-07 18:55:00
3:14 PM,43.9,31.3,61,30.10,10.0,Calm,Calm,-,N/A,,Overcast,0,2012-10-07 19:14:00
3:35 PM,45.1,28.6,52,30.10,10.0,WSW,8.1,-,N/A,,Overcast,240,2012-10-07 19:35:00
3:54 PM,45.1,26.8,49,30.09,10.0,WSW,8.1,-,N/A,,Overcast,250,2012-10-07 19:54:00
4:14 PM,45.5,26.2,47,30.09,10.0,SW,6.9,-,N/A,,Overcast,230,2012-10-07 20:14:00
4:35 PM,45.0,25.3,46,30.09,10.0,West,9.2,-,N/A,,Overcast,280,2012-10-07 20:35:00
4:54 PM,44.8,24.6,45,30.09,10.0,West,6.9,-,N/A,,Overcast,270,2012-10-07 20:54:00
5:15 PM,44.6,24.6,45,30.08,10.0,WSW,8.1,-,N/A,,Overcast,250,2012-10-07 21:15:00
5:34 PM,43.9,24.6,47,30.09,10.0,West,8.1,-,N/A,,Overcast,260,2012-10-07 21:34:00
5:55 PM,43.7,24.8,47,30.09,10.0,West,5.8,-,N/A,,Overcast,260,2012-10-07 21:55:00
6:15 PM,43.7,25.9,50,30.09,10.0,WSW,3.5,-,N/A,,Overcast,250,2012-10-07 22:15:00
6:34 PM,43.2,26.2,51,30.09,10.0,WSW,3.5,-,N/A,,Overcast,240,2012-10-07 22:34:00
6:55 PM,42.8,25.3,50,30.09,10.0,WSW,4.6,-,N/A,,Overcast,250,2012-10-07 22:55:00
7:14 PM,42.3,25.5,52,30.09,10.0,WSW,3.5,-,N/A,,Overcast,240,2012-10-07 23:14:00
7:34 PM,41.5,25.2,52,30.09,10.0,West,4.6,-,N/A,,Overcast,260,2012-10-07 23:34:00
7:55 PM,38.8,23.9,55,30.10,10.0,West,4.6,-,N/A,,Scattered Clouds,260,2012-10-07 23:55:00
8:14 PM,37.8,24.1,58,30.10,10.0,Calm,Calm,-,N/A,,Clear,0,2012-10-08 00:14:00
8:55 PM,34.5,25.9,71,30.10,10.0,Calm,Calm,-,N/A,,Clear,0,2012-10-08 00:55:00
9:14 PM,33.3,27.0,78,30.10,10.0,Calm,Calm,-,N/A,,Clear,0,2012-10-08 01:14:00
9:35 PM,32.0,27.3,83,30.11,10.0,Calm,Calm,-,N/A,,Clear,0,2012-10-08 01:35:00
9:54 PM,32.0,26.8,81,30.11,10.0,Calm,Calm,-,N/A,,Clear,0,2012-10-08 01:54:00
10:14 PM,31.8,27.1,83,30.11,10.0,Calm,Calm,-,N/A,,Clear,0,2012-10-08 02:14:00
10:35 PM,31.5,27.9,87,30.12,10.0,Calm,Calm,-,N/A,,Clear,0,2012-10-08 02:35:00
10:54 PM,30.7,27.5,88,30.12,10.0,Calm,Calm,-,N/A,,Clear,0,2012-10-08 02:54:00
11:14 PM,30.6,27.3,88,30.12,10.0,Calm,Calm,-,N/A,,Clear,0,2012-10-08 03:14:00
11:35 PM,31.3,28.6,90,30.12,10.0,Calm,Calm,-,N/A,,Clear,0,2012-10-08 03:35:00
11:54 PM,31.1,28.6,90,30.11,10.0,Calm,Calm,-,N/A,,Clear,0,2012-10-08 03:54:00